Kekaha, HI

1:15 AM HST on February 12, 2016 (GMT -1000)
Barking Sands PMRF

Weather History for PHBK - September, 2012

Change the Weather History Date:

Wednesday, September 19, 2012

  Actual Average Record
Temperature  
Mean Temperature 76 °F -  
Max Temperature 82 °F 88 °F 92 °F (1968)
Min Temperature 70 °F 67 °F 64 °F (1974)
Cooling Degree Days 11    
Growing Degree Days 26 (Base 50)    
Moisture  
Dew Point 62 °F    
Average Humidity 61    
Maximum Humidity 69    
Minimum Humidity 51    
Precipitation  
Precipitation 0.00 in - - ()
Sea Level Pressure  
Sea Level Pressure 30.00 in    
Wind  
Wind Speed 4 mph (East)    
Max Wind Speed 8 mph    
Max Gust Speed -    
Visibility 10 miles    
Events Rain    
Averages and records for this station are not official NWS values.
T = Trace of Precipitation, MM = Missing Value Source: NWS Daily Summary

Daily Weather History Graph

Daily Weather History Graph

Search for Another Location

Airport or City:

Trip Planner

Search our weather history database for the weather conditions in past years. The results will help you decide how hot, cold, wet, or windy it might be!

Date:

Astronomy

Sep. 19, 2012 Rise Set
Actual Time 6:27 AM HST 6:37 PM HST
Civil Twilight 6:04 AM HST 6:59 PM HST
Nautical Twilight 5:38 AM HST 7:25 PM HST
Astronomical Twilight 5:12 AM HST 7:52 PM HST
Moon 10:13 AM HST (9/19) 9:36 PM HST (9/19)
Length of Visible Light 12h 55m
Length of Day
12h 10m
Waxing Crescent, 19% of the Moon is Illuminated
Sep 19
Waxing Crescent
Sep 22
First Quarter
Sep 29
Full
Oct 7
Last Quarter
Oct 15
New

Hourly Weather History & Observations

Time (HST) Temp. Heat Index Dew Point Humidity Pressure Visibility Wind Dir Wind Speed Gust Speed Precip Events Conditions
12:56 AM 72.0 °F - 55.9 °F 57% 30.00 in 10.0 mi ESE 3.5 mph - N/A   Clear
1:56 AM 71.1 °F - 55.9 °F 59% 29.99 in 10.0 mi East 4.6 mph - N/A   Clear
2:56 AM 72.0 °F - 57.9 °F 61% 29.98 in 10.0 mi ENE 5.8 mph - N/A   Clear
3:56 AM 72.0 °F - 57.9 °F 61% 29.97 in 10.0 mi ENE 3.5 mph - N/A   Partly Cloudy
4:56 AM 72.0 °F - 57.9 °F 61% 29.98 in 10.0 mi East 5.8 mph - N/A   Clear
5:56 AM 70.0 °F - 57.9 °F 65% 29.99 in 10.0 mi East 4.6 mph - N/A   Clear
6:56 AM 72.0 °F - 59.0 °F 64% 30.00 in 10.0 mi East 4.6 mph - N/A   Clear
7:56 AM 79.0 °F - 62.1 °F 56% 30.02 in 10.0 mi Calm Calm - N/A   Scattered Clouds
8:56 AM 80.1 °F 81.7 °F 64.0 °F 58% 30.03 in 10.0 mi Calm Calm - N/A   Clear
9:56 AM 81.0 °F 82.5 °F 64.0 °F 56% 30.04 in 10.0 mi WNW 4.6 mph - N/A   Clear
10:56 AM 81.0 °F 82.7 °F 64.9 °F 58% 30.03 in 10.0 mi Variable 4.6 mph - N/A   Clear
11:56 AM 82.0 °F 83.8 °F 64.9 °F 56% 30.02 in 10.0 mi West 6.9 mph - N/A   Clear
12:56 PM 82.9 °F 84.6 °F 64.9 °F 54% 30.00 in 10.0 mi NW 6.9 mph - N/A   Clear
1:56 PM 82.9 °F 84.0 °F 63.0 °F 51% 29.99 in 10.0 mi West 6.9 mph - N/A   Clear
2:56 PM 81.0 °F 82.7 °F 64.9 °F 58% 29.97 in 10.0 mi NW 3.5 mph - N/A   Overcast
3:12 PM 78.8 °F - 66.2 °F 65% 29.97 in 10.0 mi ESE 8.1 mph - 0.00 in Rain Light Rain
3:23 PM 78.8 °F - 66.2 °F 65% 29.97 in 10.0 mi SE 6.9 mph - 0.00 in Rain Light Rain
3:56 PM 77.0 °F - 66.0 °F 69% 29.98 in 10.0 mi ESE 4.6 mph - 0.00 in   Overcast
4:56 PM 79.0 °F - 66.0 °F 64% 29.98 in 10.0 mi SSW 5.8 mph - N/A   Overcast
5:56 PM 78.1 °F - 64.9 °F 64% 29.99 in 10.0 mi East 6.9 mph - N/A   Overcast
6:56 PM 75.9 °F - 63.0 °F 64% 30.00 in 10.0 mi ENE 4.6 mph - 0.00 in   Overcast
7:56 PM 77.0 °F - 63.0 °F 62% 30.02 in 10.0 mi ENE 4.6 mph - N/A   Overcast
8:56 PM 77.0 °F - 63.0 °F 62% 30.05 in 10.0 mi Calm Calm - N/A   Overcast
9:56 PM 75.0 °F - 62.1 °F 64% 30.05 in 10.0 mi East 3.5 mph - N/A   Overcast
10:56 PM 75.9 °F - 62.1 °F 62% 30.04 in 10.0 mi East 3.5 mph - N/A   Mostly Cloudy
11:56 PM 75.9 °F - 62.1 °F 62% 30.03 in 10.0 mi ESE 4.6 mph - N/A   Overcast